TimeCST,TemperatureF,Dew PointF,Humidity,Sea Level PressureIn,VisibilityMPH,Wind Direction,Wind SpeedMPH,Gust SpeedMPH,PrecipitationIn,Events,Conditions,WindDirDegrees,DateUTC
12:15 AM,40.1,30.2,68,29.97,10.0,South,6.9,-,N/A,,Clear,170,2013-11-14 06:15:00
12:35 AM,39.6,30.0,69,29.96,10.0,South,8.1,-,N/A,,Clear,180,2013-11-14 06:35:00
12:55 AM,39.0,30.0,70,29.96,10.0,South,6.9,-,N/A,,Clear,180,2013-11-14 06:55:00
1:15 AM,38.5,30.0,72,29.96,10.0,South,8.1,-,N/A,,Clear,180,2013-11-14 07:15:00
1:35 AM,38.7,30.0,71,29.96,10.0,South,6.9,-,N/A,,Clear,180,2013-11-14 07:35:00
1:55 AM,37.9,30.0,73,29.94,10.0,South,5.8,-,N/A,,Clear,180,2013-11-14 07:55:00
2:15 AM,37.8,30.0,74,29.94,10.0,South,5.8,-,N/A,,Clear,170,2013-11-14 08:15:00
2:35 AM,37.6,29.7,73,29.94,10.0,South,5.8,-,N/A,,Clear,180,2013-11-14 08:35:00
2:55 AM,36.7,29.7,76,29.94,10.0,South,4.6,-,N/A,,Clear,180,2013-11-14 08:55:00
3:15 AM,36.3,29.3,76,29.93,10.0,South,3.5,-,N/A,,Clear,170,2013-11-14 09:15:00
3:35 AM,35.8,29.5,78,29.93,10.0,Calm,Calm,-,N/A,,Clear,0,2013-11-14 09:35:00
3:55 AM,35.8,29.3,77,29.93,10.0,Calm,Calm,-,N/A,,Clear,0,2013-11-14 09:55:00
4:15 AM,34.9,29.3,80,29.92,10.0,SSE,3.5,-,N/A,,Clear,160,2013-11-14 10:15:00
4:35 AM,34.9,29.3,80,29.92,10.0,South,3.5,-,N/A,,Clear,180,2013-11-14 10:35:00
4:55 AM,36.3,29.3,76,29.93,10.0,South,3.5,-,N/A,,Clear,190,2013-11-14 10:55:00
5:15 AM,36.9,29.3,74,29.93,10.0,Calm,Calm,-,N/A,,Clear,0,2013-11-14 11:15:00
5:35 AM,36.1,29.3,76,29.92,10.0,South,3.5,-,N/A,,Clear,180,2013-11-14 11:35:00
5:55 AM,35.1,29.3,80,29.92,10.0,South,3.5,-,N/A,,Clear,180,2013-11-14 11:55:00
6:15 AM,34.7,28.9,79,29.93,10.0,Calm,Calm,-,N/A,,Clear,0,2013-11-14 12:15:00
6:35 AM,35.8,29.1,77,29.93,10.0,Calm,Calm,-,N/A,,Clear,0,2013-11-14 12:35:00
6:55 AM,35.4,29.1,78,29.92,10.0,SSW,3.5,-,N/A,,Clear,210,2013-11-14 12:55:00
7:15 AM,34.9,28.9,79,29.93,10.0,Calm,Calm,-,N/A,,Clear,0,2013-11-14 13:15:00
7:35 AM,34.2,28.8,81,29.93,10.0,Calm,Calm,-,N/A,,Clear,0,2013-11-14 13:35:00
7:55 AM,34.2,29.3,82,29.94,10.0,Calm,Calm,-,N/A,,Clear,0,2013-11-14 13:55:00
8:15 AM,35.6,30.0,80,29.96,10.0,SSW,4.6,-,N/A,,Clear,210,2013-11-14 14:15:00
8:35 AM,37.9,30.7,75,29.94,10.0,SSW,3.5,-,N/A,,Clear,210,2013-11-14 14:35:00
8:55 AM,39.6,30.9,71,29.96,10.0,West,5.8,-,N/A,,Clear,260,2013-11-14 14:55:00
9:15 AM,40.3,31.3,70,29.96,10.0,WSW,4.6,-,N/A,,Clear,240,2013-11-14 15:15:00
9:35 AM,40.6,32.0,71,29.96,10.0,WSW,4.6,-,N/A,,Clear,240,2013-11-14 15:35:00
9:55 AM,41.9,32.4,69,29.94,10.0,Calm,Calm,-,N/A,,Clear,0,2013-11-14 15:55:00
10:15 AM,43.0,32.9,68,29.97,10.0,WNW,8.1,-,N/A,,Clear,290,2013-11-14 16:15:00
10:35 AM,44.2,34.7,69,29.96,10.0,West,3.5,-,N/A,,Clear,270,2013-11-14 16:35:00
10:55 AM,45.5,35.4,68,29.96,10.0,WNW,5.8,-,N/A,,Clear,290,2013-11-14 16:55:00
11:15 AM,46.0,36.0,68,29.94,10.0,West,3.5,-,N/A,,Clear,270,2013-11-14 17:15:00
11:35 AM,46.6,36.5,68,29.94,10.0,WNW,3.5,-,N/A,,Clear,300,2013-11-14 17:35:00
11:55 AM,48.2,37.2,66,29.93,10.0,Calm,Calm,-,N/A,,Clear,0,2013-11-14 17:55:00
12:15 PM,48.6,37.2,65,29.92,10.0,Calm,Calm,-,N/A,,Clear,0,2013-11-14 18:15:00
12:35 PM,50.0,38.1,64,29.91,10.0,Calm,Calm,-,N/A,,Clear,0,2013-11-14 18:35:00
12:55 PM,51.8,38.3,60,29.90,10.0,Calm,Calm,-,N/A,,Clear,0,2013-11-14 18:55:00
1:15 PM,52.5,38.5,59,29.90,10.0,Calm,Calm,-,N/A,,Clear,0,2013-11-14 19:15:00
1:35 PM,52.7,38.3,58,29.90,10.0,SSE,3.5,-,N/A,,Clear,150,2013-11-14 19:35:00
1:55 PM,53.2,38.8,58,29.90,10.0,Calm,Calm,-,N/A,,Clear,0,2013-11-14 19:55:00
2:15 PM,54.5,38.7,55,29.90,10.0,Calm,Calm,-,N/A,,Clear,0,2013-11-14 20:15:00
2:35 PM,54.7,39.0,56,29.89,10.0,Calm,Calm,-,N/A,,Clear,0,2013-11-14 20:35:00
2:55 PM,55.6,39.2,54,29.89,10.0,SSE,3.5,-,N/A,,Scattered Clouds,150,2013-11-14 20:55:00
3:15 PM,55.4,39.2,54,29.89,10.0,Calm,Calm,-,N/A,,Scattered Clouds,0,2013-11-14 21:15:00
3:35 PM,56.1,39.7,54,29.89,10.0,SE,3.5,-,N/A,,Scattered Clouds,140,2013-11-14 21:35:00
3:55 PM,55.2,39.9,56,29.89,10.0,SSE,3.5,-,N/A,,Mostly Cloudy,150,2013-11-14 21:55:00
4:15 PM,54.9,39.6,56,29.89,10.0,SE,3.5,-,N/A,,Mostly Cloudy,130,2013-11-14 22:15:00
4:35 PM,53.6,39.4,59,29.89,10.0,SSE,3.5,-,N/A,,Clear,150,2013-11-14 22:35:00
4:55 PM,52.0,38.7,60,29.89,10.0,SSE,4.6,-,N/A,,Clear,150,2013-11-14 22:55:00
5:15 PM,50.0,38.3,64,29.89,10.0,South,3.5,-,N/A,,Clear,170,2013-11-14 23:15:00
5:35 PM,47.8,38.1,69,29.89,10.0,South,3.5,-,N/A,,Clear,170,2013-11-14 23:35:00
5:55 PM,47.8,38.1,69,29.90,10.0,Calm,Calm,-,N/A,,Clear,0,2013-11-14 23:55:00
6:15 PM,46.0,37.2,71,29.90,10.0,South,4.6,-,N/A,,Clear,170,2013-11-15 00:15:00
6:35 PM,44.4,36.9,75,29.90,10.0,Calm,Calm,-,N/A,,Clear,0,2013-11-15 00:35:00
6:55 PM,45.7,36.5,70,29.90,10.0,Calm,Calm,-,N/A,,Clear,0,2013-11-15 00:55:00
7:15 PM,44.6,36.5,73,29.90,10.0,Calm,Calm,-,N/A,,Clear,0,2013-11-15 01:15:00
7:35 PM,45.5,36.5,71,29.89,10.0,Calm,Calm,-,N/A,,Clear,0,2013-11-15 01:35:00
7:55 PM,45.1,36.5,72,29.89,10.0,Calm,Calm,-,N/A,,Clear,0,2013-11-15 01:55:00
8:15 PM,43.5,36.0,75,29.89,10.0,Calm,Calm,-,N/A,,Clear,0,2013-11-15 02:15:00
8:35 PM,44.1,36.5,75,29.90,10.0,Calm,Calm,-,N/A,,Clear,0,2013-11-15 02:35:00
8:55 PM,36.7,32.5,85,29.90,7.0,Calm,Calm,-,N/A,,Clear,0,2013-11-15 02:55:00
9:15 PM,34.7,32.5,92,29.90,10.0,Calm,Calm,-,N/A,,Clear,0,2013-11-15 03:15:00
9:35 PM,35.6,33.4,92,29.90,10.0,Calm,Calm,-,N/A,,Clear,0,2013-11-15 03:35:00
9:55 PM,35.1,33.3,93,29.90,10.0,Calm,Calm,-,N/A,,Clear,0,2013-11-15 03:55:00
10:15 PM,34.9,32.7,92,29.90,10.0,Calm,Calm,-,N/A,,Clear,0,2013-11-15 04:15:00
10:35 PM,33.8,32.5,95,29.90,7.0,Calm,Calm,-,N/A,,Clear,0,2013-11-15 04:35:00
10:55 PM,32.4,31.8,98,29.90,10.0,Calm,Calm,-,N/A,,Clear,0,2013-11-15 04:55:00
11:15 PM,34.2,33.3,97,29.89,10.0,Calm,Calm,-,N/A,,Clear,0,2013-11-15 05:15:00
11:35 PM,32.7,32.4,99,29.89,10.0,Calm,Calm,-,N/A,,Clear,0,2013-11-15 05:35:00
11:55 PM,32.2,32.0,99,29.89,10.0,Calm,Calm,-,N/A,,Clear,0,2013-11-15 05:55:00